When you browse on this site, cookies collect data to enhance your experience and personalize the content and advertising you see.
Visit our Privacy Policy to learn more. By continuing to use the site, you agree to this use of cookies and data.
  • In Hungary
  • List of Countries
  • For 7 days
  • Water Temperature
  • Weather Map
  • News
  • Weather Widgets
  • user-avatar
    Login

    Hourly Weather Białogard

    Today, 6 December, Friday

    Time Temperature Precipitation Wind Pressure Humidity
    00:00 -2°C° 0 mm 7 mps 756 mmHg 76%
    01:00 -2°C° 0 mm 8 mps 755 mmHg 79%
    02:00 -2°C° 0 mm 8 mps 755 mmHg 76%
    03:00 -2°C° 0 mm 8 mps 754 mmHg 73%
    04:00 -3°C° 0 mm 9 mps 753 mmHg 70%
    05:00 -3°C° 0 mm 9 mps 753 mmHg 67%
    06:00 -1°C° 0 mm 9 mps 753 mmHg 65%
    07:00 -2°C° 0 mm 10 mps 752 mmHg 59%
    08:00 -1°C° 0.2 mm 9 mps 752 mmHg 65%
    09:00 -1°C° 0.2 mm 9 mps 752 mmHg 70%
    10:00 -1°C° 0.2 mm 8 mps 752 mmHg 75%
    11:00 -1°C° 0.4 mm 8 mps 752 mmHg 77%
    12:00 -1°C° 0.4 mm 8 mps 752 mmHg 79%
    13:00 0°C° 0 mm 8 mps 752 mmHg 85%
    14:00 0°C° 0.3 mm 8 mps 751 mmHg 86%
    15:00 0°C° 0.3 mm 8 mps 751 mmHg 88%
    16:00 0°C° 0.3 mm 7 mps 750 mmHg 89%
    17:00 0°C° 0.5 mm 7 mps 750 mmHg 90%
    18:00 0°C° 0.5 mm 7 mps 750 mmHg 91%
    19:00 0°C° 0.5 mm 7 mps 750 mmHg 91%
    20:00 0°C° 0.6 mm 7 mps 750 mmHg 92%
    21:00 0°C° 0.6 mm 7 mps 749 mmHg 92%
    22:00 +2°C° 0.6 mm 7 mps 749 mmHg 92%
    23:00 +2°C° 0.4 mm 7 mps 749 mmHg 91%

    Tomorrow, 7 December, Saturday

    Time Temperature Precipitation Wind Pressure Humidity
    00:00 +1°C° 0.4 mm 8 mps 748 mmHg 90%
    01:00 +1°C° 0.4 mm 8 mps 748 mmHg 89%
    02:00 +1°C° 0.3 mm 8 mps 747 mmHg 90%
    03:00 +2°C° 0.3 mm 8 mps 746 mmHg 91%
    04:00 +3°C° 0.3 mm 7 mps 746 mmHg 92%
    05:00 +3°C° 0.5 mm 7 mps 745 mmHg 91%
    06:00 +4°C° 0.5 mm 7 mps 745 mmHg 90%
    07:00 +4°C° 0.5 mm 7 mps 745 mmHg 89%
    08:00 +5°C° 0.5 mm 8 mps 745 mmHg 89%
    09:00 +5°C° 0.5 mm 8 mps 745 mmHg 89%
    10:00 +5°C° 0.5 mm 8 mps 745 mmHg 89%
    11:00 +6°C° 0.7 mm 8 mps 746 mmHg 88%
    12:00 +6°C° 0.7 mm 8 mps 746 mmHg 87%
    13:00 +6°C° 0.7 mm 8 mps 747 mmHg 86%
    14:00 +6°C° 0.1 mm 8 mps 747 mmHg 83%
    15:00 +5°C° 0.1 mm 8 mps 748 mmHg 80%
    16:00 +5°C° 0.1 mm 7 mps 748 mmHg 78%
    17:00 +5°C° 0.1 mm 7 mps 749 mmHg 77%
    18:00 +5°C° 0.1 mm 7 mps 749 mmHg 76%
    19:00 +4°C° 0.1 mm 7 mps 750 mmHg 75%
    20:00 +4°C° 0 mm 7 mps 750 mmHg 77%
    21:00 +3°C° 0 mm 7 mps 750 mmHg 78%
    22:00 +3°C° 0 mm 7 mps 751 mmHg 79%
    23:00 +3°C° 0 mm 6 mps 751 mmHg 83%

    Day after tomorrow, 8 December, Sunday

    Time Temperature Precipitation Wind Pressure Humidity
    00:00 +3°C° 0 mm 6 mps 751 mmHg 86%
    01:00 +3°C° 0 mm 6 mps 751 mmHg 90%
    02:00 +3°C° 0.2 mm 6 mps 751 mmHg 91%
    03:00 +4°C° 0.2 mm 6 mps 750 mmHg 92%
    04:00 +4°C° 0.2 mm 6 mps 750 mmHg 92%
    05:00 +4°C° 0 mm 6 mps 750 mmHg 91%
    06:00 +4°C° 0 mm 6 mps 750 mmHg 89%
    07:00 +4°C° 0 mm 6 mps 750 mmHg 88%
    08:00 +5°C° 0 mm 7 mps 749 mmHg 86%
    09:00 +5°C° 0 mm 7 mps 749 mmHg 84%
    10:00 +5°C° 0 mm 8 mps 748 mmHg 82%
    11:00 +5°C° 0 mm 8 mps 747 mmHg 80%
    12:00 +5°C° 0 mm 9 mps 746 mmHg 79%
    13:00 +5°C° 0 mm 9 mps 746 mmHg 77%
    14:00 +5°C° 0.5 mm 9 mps 745 mmHg 80%
    15:00 +5°C° 0.5 mm 9 mps 744 mmHg 83%
    16:00 +5°C° 0.5 mm 9 mps 743 mmHg 86%
    17:00 +6°C° 0.3 mm 9 mps 743 mmHg 86%
    18:00 +6°C° 0.3 mm 9 mps 742 mmHg 86%
    19:00 +7°C° 0.3 mm 9 mps 742 mmHg 86%
    20:00 +7°C° 0.2 mm 8 mps 742 mmHg 84%
    21:00 +7°C° 0.2 mm 8 mps 742 mmHg 82%
    22:00 +8°C° 0.2 mm 7 mps 742 mmHg 80%
    23:00 +6°C° 0 mm 7 mps 742 mmHg 80%

    9 December, Monday

    Time Temperature Precipitation Wind Pressure Humidity
    00:00 +5°C° 0 mm 6 mps 742 mmHg 80%
    01:00 +5°C° 0 mm 6 mps 743 mmHg 81%
    02:00 +4°C° 0 mm 6 mps 742 mmHg 81%
    03:00 +4°C° 0 mm 6 mps 742 mmHg 82%
    04:00 +4°C° 0 mm 7 mps 742 mmHg 83%
    05:00 +4°C° 0.1 mm 6 mps 742 mmHg 84%
    06:00 +4°C° 0.1 mm 6 mps 742 mmHg 84%
    07:00 +3°C° 0.1 mm 6 mps 742 mmHg 85%
    08:00 +3°C° 0 mm 6 mps 743 mmHg 84%
    09:00 +4°C° 0 mm 6 mps 743 mmHg 82%
    10:00 +4°C° 0 mm 7 mps 743 mmHg 81%
    11:00 +4°C° 0 mm 6 mps 743 mmHg 78%
    12:00 +5°C° 0 mm 6 mps 743 mmHg 75%
    13:00 +5°C° 0 mm 6 mps 743 mmHg 72%
    14:00 +6°C° 0 mm 5 mps 743 mmHg 73%
    15:00 +5°C° 0 mm 5 mps 743 mmHg 75%
    16:00 +5°C° 0 mm 5 mps 742 mmHg 77%
    17:00 +5°C° 0.1 mm 5 mps 743 mmHg 79%
    18:00 +5°C° 0.1 mm 5 mps 743 mmHg 81%
    19:00 +4°C° 0.1 mm 6 mps 743 mmHg 83%
    20:00 +5°C° 0.1 mm 5 mps 743 mmHg 84%
    21:00 +5°C° 0.1 mm 5 mps 743 mmHg 85%
    22:00 +5°C° 0.1 mm 5 mps 743 mmHg 86%
    23:00 +5°C° 0.1 mm 5 mps 743 mmHg 86%

    10 December, Tuesday

    Time Temperature Precipitation Wind Pressure Humidity
    00:00 +4°C° 0.1 mm 4 mps 743 mmHg 86%
    01:00 +4°C° 0.1 mm 4 mps 744 mmHg 86%
    02:00 +4°C° 0 mm 4 mps 744 mmHg 87%
    03:00 +4°C° 0 mm 4 mps 744 mmHg 88%
    04:00 +4°C° 0 mm 4 mps 745 mmHg 89%
    05:00 +4°C° 0.1 mm 3 mps 745 mmHg 90%
    06:00 +4°C° 0.1 mm 3 mps 746 mmHg 91%
    07:00 +4°C° 0.1 mm 3 mps 747 mmHg 92%
    08:00 +5°C° 0.1 mm 2 mps 748 mmHg 92%
    09:00 +5°C° 0.1 mm 2 mps 748 mmHg 93%
    10:00 +5°C° 0.1 mm 2 mps 749 mmHg 93%
    11:00 +4°C° 0.4 mm 4 mps 751 mmHg 92%
    12:00 +3°C° 0.4 mm 6 mps 752 mmHg 90%
    13:00 +2°C° 0.4 mm 8 mps 753 mmHg 89%
    14:00 +2°C° 0.1 mm 8 mps 754 mmHg 88%
    15:00 +2°C° 0.1 mm 7 mps 755 mmHg 87%
    16:00 +2°C° 0.1 mm 7 mps 756 mmHg 86%
    17:00 +2°C° 0.2 mm 6 mps 758 mmHg 86%
    18:00 +1°C° 0.2 mm 6 mps 759 mmHg 86%
    19:00 +1°C° 0.2 mm 5 mps 760 mmHg 86%
    20:00 +1°C° 0 mm 4 mps 760 mmHg 86%
    21:00 +1°C° 0 mm 3 mps 761 mmHg 85%
    22:00 +2°C° 0 mm 2 mps 762 mmHg 84%
    23:00 +3°C° 0 mm 1 mps 762 mmHg 83%

    11 December, Wednesday

    Time Temperature Precipitation Wind Pressure Humidity
    00:00 +3°C° 0 mm 1 mps 762 mmHg 81%
    01:00 +2°C° 0 mm 1 mps 762 mmHg 80%
    02:00 +2°C° 0 mm 1 mps 762 mmHg 81%
    03:00 +1°C° 0 mm 2 mps 762 mmHg 83%
    04:00 +1°C° 0 mm 2 mps 762 mmHg 84%
    05:00 -1°C° 0 mm 2 mps 762 mmHg 85%
    06:00 -1°C° 0 mm 3 mps 762 mmHg 87%
    07:00 -1°C° 0 mm 3 mps 762 mmHg 88%
    08:00 -1°C° 0 mm 4 mps 761 mmHg 84%
    09:00 -1°C° 0 mm 5 mps 761 mmHg 81%
    10:00 -2°C° 0 mm 6 mps 761 mmHg 77%
    11:00 -1°C° 0 mm 6 mps 760 mmHg 75%
    12:00 -1°C° 0 mm 7 mps 760 mmHg 72%
    13:00 -1°C° 0 mm 7 mps 759 mmHg 70%
    14:00 -1°C° 0 mm 7 mps 759 mmHg 69%
    15:00 -1°C° 0 mm 7 mps 758 mmHg 69%
    16:00 -1°C° 0 mm 7 mps 758 mmHg 68%
    17:00 -1°C° 0 mm 7 mps 758 mmHg 70%
    18:00 -1°C° 0 mm 7 mps 758 mmHg 72%
    19:00 -2°C° 0 mm 6 mps 758 mmHg 74%
    20:00 -2°C° 0 mm 6 mps 757 mmHg 73%
    21:00 -2°C° 0 mm 6 mps 757 mmHg 72%
    22:00 -2°C° 0 mm 6 mps 757 mmHg 71%
    23:00 -1°C° 0 mm 5 mps 757 mmHg 73%
    Show more